Location: Cisewo
(53.3833°N, 14.9000°E)
Time: 13:20:15
(UTC+00:00)

RESURS DK-1 - Pass Details

Date: 18 April 2021
Orbit: 553 x 563 km, 69.9° (Epoch: 16 May)

Event Time Altitude Azimuth Distance (km) Brightness Sun altitude
Rises 18:40:29 0° 178° (S) 2,726 5.6 -5.4°
Reaches altitude 10° 18:42:56 10° 166° (SSE) 1,838 4.6 -5.8°
Maximum altitude 18:46:20 25° 110° (ESE) 1,140 3.4 -6.2°
Drops below altitude 10° 18:49:45 10° 54° (NE) 1,856 4.8 -6.7°
Sets 18:52:13 0° 42° (NE) 2,759 5.8 -7.0°
